Flag for U.S.A. Weather past 2 weeks in Coeur d'Alene, Idaho, U.S.A.

Now
55 °F

Sunny.


Feels Like: 52 °F
Forecast: 42 / 75 °F
Wind: 12 mph from Northeast

Location: Coeur d'Alene Weather Reporting System

Current Time: Apr 28, 2015 at 9:21:25 AM

Latest Report: Apr 28, 2015 at 8:55 AM


Visibility: 10 mi

Pressure: 30.11 "Hg

Humidity: 59%

Dew point: 41 °F

Location of Coeur d'AleneLocation

Historic Weather in Coeur d'Alene — Graph

°F

Coeur d'Alene temperature yesterday

Maximum temperature yesterday: 64 °F (at 2:55 PM)
Minimum temperature yesterday: 32 °F (at 4:55 AM)
Average temperature yesterday: 50 °F

Past Weeks' High & Low Weather Summary

 TemperatureHumidityPressure
High73 °F (Apr 21, 2:55 PM)100% (Apr 28, 3:35 AM)30.40 "Hg (Apr 28, 3:35 AM)
Low30 °F (Apr 15, 1:35 AM)11% (Apr 28, 3:15 AM)29.70 "Hg (Apr 24, 2:35 AM)
Average48 °F59%30.05 "Hg
* Reported Apr 13 8:15 AM — Apr 28 8:15 AM, Coeur d'Alene, Weather by CustomWeather, © 2015

Note: Actual official high and low records may vary slightly from our data, if they occured in-between our weather recording intervals... More about our weather records

Advertising

Coeur d'Alene weather history for previous 24 hours

 ConditionsComfort  
Time TempWeatherWind HumidityBarometerVisibility
8:15 AM
Tue, Apr 28
52 °FSunny.12 mph62%30.12 "Hg10 mi
7:55 AM52 °FSunny.9 mph62%30.12 "Hg10 mi
7:35 AM48 °FSunny.9 mph71%30.12 "Hg10 mi
7:15 AM46 °FSunny.12 mph71%30.12 "Hg10 mi
6:55 AM45 °FSunny.10 mph76%30.12 "Hg10 mi
6:35 AM45 °FSunny.8 mph71%30.12 "Hg10 mi
6:15 AM43 °FClear.8 mph76%30.13 "Hg10 mi
5:55 AM43 °FClear.9 mph76%30.12 "Hg10 mi
5:35 AM41 °FClear.8 mph81%30.13 "Hg10 mi
5:15 AM43 °FClear.8 mph76%30.13 "Hg10 mi
4:55 AM43 °FClear.9 mph76%30.14 "Hg10 mi
4:35 AM43 °FClear.9 mph76%30.14 "Hg10 mi
4:15 AM43 °FClear.8 mph76%30.14 "Hg10 mi
3:55 AM43 °FClear.8 mph81%30.14 "Hg10 mi
3:35 AM45 °FClear.8 mph100%30.15 "Hg10 mi
3:15 AM43 °FClear.8 mph11%30.15 "Hg10 mi
2:55 AM43 °FClear.8 mph71%30.15 "Hg10 mi
2:35 AM43 °FClear.7 mph76%30.16 "Hg10 mi
2:15 AM43 °FClear.8 mph76%30.16 "Hg10 mi
1:55 AM43 °FClear.7 mph76%30.17 "Hg10 mi
1:35 AM45 °FClear.7 mph71%30.18 "Hg10 mi
1:15 AM45 °FClear.6 mph76%30.18 "Hg10 mi
12:55 AM46 °FClear.6 mph71%30.19 "Hg10 mi
12:35 AM46 °FClear.8 mph66%30.19 "Hg10 mi
12:15 AM46 °FClear.6 mph66%30.19 "Hg10 mi
11:55 PM
Mon, Apr 27
48 °FClear.6 mph66%30.19 "Hg10 mi
11:35 PM48 °FClear.6 mph66%30.19 "Hg10 mi
11:15 PM48 °FClear.6 mph66%30.20 "Hg10 mi
10:55 PM46 °FClear.3 mph71%30.20 "Hg10 mi
10:35 PM48 °FClear.3 mph66%30.20 "Hg10 mi
10:15 PM48 °FClear.6 mph66%30.20 "Hg10 mi
9:55 PM50 °FClear.6 mph62%30.20 "Hg10 mi
9:35 PM50 °FClear.7 mph67%30.20 "Hg10 mi
9:15 PM52 °FClear.5 mph58%30.20 "Hg10 mi
8:35 PM54 °FSunny.6 mph58%30.20 "Hg10 mi
8:15 PM55 °FSunny.5 mph47%30.19 "Hg10 mi
7:55 PM59 °FSunny.No wind42%30.19 "Hg10 mi
7:35 PM61 °FSunny.No wind36%30.19 "Hg10 mi
7:15 PM63 °FSunny.No wind34%30.20 "Hg10 mi
6:55 PM63 °FSunny.3 mph34%30.20 "Hg10 mi
6:35 PM64 °FSunny.3 mph32%30.21 "Hg10 mi
6:15 PM64 °FSunny.No wind32%30.22 "Hg10 mi
5:55 PM64 °FSunny.No wind30%30.22 "Hg10 mi
5:35 PM64 °FSunny.No wind32%30.23 "Hg10 mi
5:15 PM64 °FSunny.No wind32%30.24 "Hg10 mi
4:55 PM64 °FSunny.3 mph30%30.25 "Hg10 mi
4:35 PM64 °FSunny.No wind30%30.25 "Hg10 mi
4:15 PM64 °FSunny.3 mph28%30.26 "Hg10 mi
3:55 PM64 °FSunny.5 mph30%30.26 "Hg10 mi
3:35 PM64 °FSunny.No wind28%30.27 "Hg10 mi
3:15 PM64 °FSunny.6 mph28%30.27 "Hg10 mi
2:55 PM64 °FSunny.5 mph28%30.28 "Hg10 mi
2:15 PM63 °FSunny.6 mph27%30.30 "Hg10 mi
1:55 PM63 °FSunny.5 mph27%30.31 "Hg10 mi
1:35 PM63 °FSunny.5 mph25%30.31 "Hg10 mi
1:15 PM61 °FSunny.3 mph25%30.32 "Hg10 mi
12:55 PM61 °FSunny.No wind25%30.33 "Hg10 mi
12:35 PM61 °FSunny.No wind27%30.33 "Hg10 mi
12:15 PM61 °FSunny.No wind25%30.34 "Hg10 mi
11:55 AM61 °FSunny.5 mph27%30.35 "Hg10 mi
11:35 AM57 °FSunny.6 mph29%30.35 "Hg10 mi
11:15 AM57 °FSunny.5 mph31%30.36 "Hg10 mi
10:55 AM55 °FSunny.5 mph36%30.36 "Hg10 mi
10:35 AM55 °FSunny.5 mph38%30.36 "Hg10 mi
10:15 AM54 °FSunny.6 mph41%30.36 "Hg10 mi
9:55 AM54 °FSunny.No wind28%30.36 "Hg10 mi
9:35 AM52 °FSunny.3 mph50%30.36 "Hg10 mi
9:15 AM48 °FSunny.3 mph54%30.36 "Hg10 mi
Weather by CustomWeather, © 2015

See weather overviewHow to use our weather pages